Time,TemperatureF,DewpointF,PressureIn,WindDirection,WindDirectionDegrees,WindSpeedMPH,WindSpeedGustMPH,Humidity,HourlyPrecipIn,Conditions,Clouds,dailyrainin,SolarRadiationWatts/m^2,SoftwareType,DateUTC
2013-05-13 00:03:00,49.0,36.0,-100.00,North,10,1.0,5.0,61,0.00,,,0.00,0.000000,,2013-05-13 04:03:00,
2013-05-13 00:23:00,48.0,33.0,-100.00,NNW,338,2.0,8.0,55,0.00,,,0.00,0.000000,,2013-05-13 04:23:00,
2013-05-13 00:33:00,48.0,33.0,-100.00,NNW,338,2.0,8.0,55,0.00,,,0.00,0.000000,,2013-05-13 04:33:00,
2013-05-13 00:42:00,48.0,33.0,-100.00,NNW,338,2.0,8.0,55,0.00,,,0.00,0.000000,,2013-05-13 04:42:00,
2013-05-13 00:53:00,48.0,33.0,-100.00,NNW,338,2.0,8.0,55,0.00,,,0.00,0.000000,,2013-05-13 04:53:00,
2013-05-13 01:02:00,48.0,33.0,-100.00,NNW,338,2.0,8.0,55,0.00,,,0.00,0.000000,,2013-05-13 05:02:00,
2013-05-13 01:32:00,45.0,35.0,-100.00,NE,45,1.0,4.0,69,0.00,,,0.00,0.000000,,2013-05-13 05:32:00,
2013-05-13 01:42:00,45.0,35.0,-100.00,NE,45,1.0,4.0,69,0.00,,,0.00,0.000000,,2013-05-13 05:42:00,
2013-05-13 01:52:00,45.0,35.0,-100.00,NE,45,1.0,4.0,69,0.00,,,0.00,0.000000,,2013-05-13 05:52:00,
2013-05-13 02:01:00,45.0,35.0,-100.00,NE,45,1.0,4.0,69,0.00,,,0.00,0.000000,,2013-05-13 06:01:00,
2013-05-13 02:22:00,43.0,35.0,-100.00,NNW,348,1.0,3.0,72,0.00,,,0.00,0.000000,,2013-05-13 06:22:00,
2013-05-13 02:32:00,43.0,35.0,-100.00,NNW,348,1.0,3.0,72,0.00,,,0.00,0.000000,,2013-05-13 06:32:00,
2013-05-13 02:42:00,43.0,35.0,-100.00,NNW,348,1.0,3.0,72,0.00,,,0.00,0.000000,,2013-05-13 06:42:00,
2013-05-13 02:52:00,43.0,35.0,-100.00,NNW,348,1.0,3.0,72,0.00,,,0.00,0.000000,,2013-05-13 06:52:00,
2013-05-13 03:01:00,43.0,35.0,-100.00,NNW,348,1.0,3.0,72,0.00,,,0.00,0.000000,,2013-05-13 07:01:00,
2013-05-13 03:32:00,42.0,33.0,-100.00,ENE,58,1.0,4.0,71,0.00,,,0.00,0.000000,,2013-05-13 07:32:00,
2013-05-13 03:42:00,42.0,33.0,-100.00,ENE,58,1.0,4.0,71,0.00,,,0.00,0.000000,,2013-05-13 07:42:00,
2013-05-13 03:52:00,42.0,33.0,-100.00,ENE,58,1.0,4.0,71,0.00,,,0.00,0.000000,,2013-05-13 07:52:00,
2013-05-13 04:02:00,42.0,33.0,-100.00,ENE,58,1.0,4.0,71,0.00,,,0.00,0.000000,,2013-05-13 08:02:00,
2013-05-13 04:22:00,39.0,36.0,-100.00,NW,318,0.0,2.0,89,0.00,,,0.00,0.000000,,2013-05-13 08:22:00,
2013-05-13 04:32:00,39.0,36.0,-100.00,NW,318,0.0,2.0,89,0.00,,,0.00,0.000000,,2013-05-13 08:32:00,
2013-05-13 04:42:00,39.0,36.0,-100.00,NW,318,0.0,2.0,89,0.00,,,0.00,0.000000,,2013-05-13 08:42:00,
2013-05-13 04:52:00,39.0,36.0,-100.00,NW,318,0.0,2.0,89,0.00,,,0.00,0.000000,,2013-05-13 08:52:00,
2013-05-13 05:01:00,39.0,36.0,-100.00,NW,318,0.0,2.0,89,0.00,,,0.00,0.000000,,2013-05-13 09:01:00,
2013-05-13 05:33:00,39.0,37.0,-100.00,NNW,343,1.0,2.0,91,0.00,,,0.00,0.000000,,2013-05-13 09:33:00,
2013-05-13 05:42:00,39.0,37.0,-100.00,NNW,343,1.0,2.0,91,0.00,,,0.00,0.000000,,2013-05-13 09:42:00,
2013-05-13 05:52:00,39.0,37.0,-100.00,NNW,343,1.0,2.0,91,0.00,,,0.00,0.000000,,2013-05-13 09:52:00,
2013-05-13 06:03:00,39.0,37.0,-100.00,NNW,343,1.0,2.0,91,0.00,,,0.00,0.000000,,2013-05-13 10:03:00,
2013-05-13 06:22:00,39.0,34.0,-100.00,NNW,343,1.0,2.0,81,0.00,,,0.00,0.000000,,2013-05-13 10:22:00,
2013-05-13 06:33:00,39.0,34.0,-100.00,NNW,343,1.0,2.0,81,0.00,,,0.00,0.000000,,2013-05-13 10:33:00,
2013-05-13 06:43:00,39.0,34.0,-100.00,NNW,343,1.0,2.0,81,0.00,,,0.00,0.000000,,2013-05-13 10:43:00,
2013-05-13 06:52:00,39.0,34.0,-100.00,NNW,343,1.0,2.0,81,0.00,,,0.00,0.000000,,2013-05-13 10:52:00,
2013-05-13 07:02:00,39.0,34.0,-100.00,NNW,343,1.0,2.0,81,0.00,,,0.00,0.000000,,2013-05-13 11:02:00,
2013-05-13 07:22:00,39.0,35.0,-100.00,NNW,333,0.0,2.0,85,0.00,,,0.00,11.000000,,2013-05-13 11:22:00,
2013-05-13 07:32:00,39.0,35.0,-100.00,NNW,333,0.0,2.0,85,0.00,,,0.00,11.000000,,2013-05-13 11:32:00,
2013-05-13 07:42:00,39.0,35.0,-100.00,NNW,333,0.0,2.0,85,0.00,,,0.00,11.000000,,2013-05-13 11:42:00,
2013-05-13 07:52:00,39.0,35.0,-100.00,NNW,333,0.0,2.0,85,0.00,,,0.00,11.000000,,2013-05-13 11:52:00,
2013-05-13 08:02:00,39.0,35.0,-100.00,NNW,333,0.0,2.0,85,0.00,,,0.00,11.000000,,2013-05-13 12:02:00,
2013-05-13 08:32:00,48.0,44.0,-100.00,North,349,3.0,4.0,86,0.00,,,0.00,37.000000,,2013-05-13 12:32:00,
2013-05-13 08:42:00,48.0,44.0,-100.00,North,349,3.0,4.0,86,0.00,,,0.00,37.000000,,2013-05-13 12:42:00,
2013-05-13 08:52:00,48.0,44.0,-100.00,North,349,3.0,4.0,86,0.00,,,0.00,37.000000,,2013-05-13 12:52:00,
2013-05-13 09:01:00,48.0,44.0,-100.00,North,349,3.0,4.0,86,0.00,,,0.00,37.000000,,2013-05-13 13:01:00,
2013-05-13 09:32:00,54.0,34.0,-100.00,NNW,346,4.0,8.0,46,0.00,,,0.00,104.000000,,2013-05-13 13:32:00,
2013-05-13 09:42:00,54.0,34.0,-100.00,NNW,346,4.0,8.0,46,0.00,,,0.00,104.000000,,2013-05-13 13:42:00,
2013-05-13 09:52:00,54.0,34.0,-100.00,NNW,346,4.0,8.0,46,0.00,,,0.00,104.000000,,2013-05-13 13:52:00,
2013-05-13 10:02:00,54.0,34.0,-100.00,NNW,346,4.0,8.0,46,0.00,,,0.00,104.000000,,2013-05-13 14:02:00,
2013-05-13 11:32:00,58.0,30.0,-100.00,WNW,296,5.0,11.0,34,-99.99,,,0.00,867.000000,,2013-05-13 15:32:00,
2013-05-13 11:42:00,58.0,30.0,-100.00,WNW,296,5.0,11.0,34,-99.99,,,0.00,867.000000,,2013-05-13 15:42:00,
2013-05-13 11:53:00,58.0,30.0,-100.00,WNW,296,5.0,11.0,34,-99.99,,,0.00,867.000000,,2013-05-13 15:53:00,
2013-05-13 12:03:00,58.0,30.0,-100.00,WNW,296,5.0,11.0,34,-99.99,,,0.00,867.000000,,2013-05-13 16:03:00,
2013-05-13 12:22:00,61.0,31.0,-100.00,North,1,4.0,12.0,32,0.00,,,0.00,1009.000000,,2013-05-13 16:22:00,
2013-05-13 12:34:00,61.0,31.0,-100.00,North,1,4.0,12.0,32,0.00,,,0.00,1009.000000,,2013-05-13 16:34:00,
2013-05-13 12:43:00,61.0,31.0,-100.00,North,1,4.0,12.0,32,0.00,,,0.00,1009.000000,,2013-05-13 16:43:00,
2013-05-13 12:53:00,61.0,31.0,-100.00,North,1,4.0,12.0,32,0.00,,,0.00,1009.000000,,2013-05-13 16:53:00,
2013-05-13 13:02:00,61.0,31.0,-100.00,North,1,4.0,12.0,32,0.00,,,0.00,1009.000000,,2013-05-13 17:02:00,
2013-05-13 13:32:00,62.0,33.0,-100.00,South,179,5.0,12.0,33,0.00,,,0.00,1073.000000,,2013-05-13 17:32:00,
2013-05-13 13:42:00,62.0,33.0,-100.00,South,179,5.0,12.0,33,0.00,,,0.00,1073.000000,,2013-05-13 17:42:00,
2013-05-13 13:54:00,62.0,33.0,-100.00,South,179,5.0,12.0,33,0.00,,,0.00,1073.000000,,2013-05-13 17:54:00,
2013-05-13 14:03:00,62.0,33.0,-100.00,South,179,5.0,12.0,33,0.00,,,0.00,1073.000000,,2013-05-13 18:03:00,
2013-05-13 15:33:00,66.0,27.0,-100.00,NW,320,7.0,15.0,23,-99.99,,,0.00,1088.000000,,2013-05-13 19:33:00,
2013-05-13 15:44:00,66.0,27.0,-100.00,NW,320,7.0,15.0,23,-99.99,,,0.00,1088.000000,,2013-05-13 19:44:00,
2013-05-13 15:53:00,66.0,27.0,-100.00,NW,320,7.0,15.0,23,-99.99,,,0.00,1088.000000,,2013-05-13 19:53:00,
2013-05-13 16:02:00,66.0,27.0,-100.00,NW,320,7.0,15.0,23,-99.99,,,0.00,1088.000000,,2013-05-13 20:02:00,
2013-05-13 16:23:00,66.0,25.0,-100.00,NNW,331,8.0,16.0,21,0.00,,,0.00,982.000000,,2013-05-13 20:23:00,
2013-05-13 16:34:00,66.0,25.0,-100.00,NNW,331,8.0,16.0,21,0.00,,,0.00,982.000000,,2013-05-13 20:34:00,
2013-05-13 16:44:00,66.0,25.0,-100.00,NNW,331,8.0,16.0,21,0.00,,,0.00,982.000000,,2013-05-13 20:44:00,
2013-05-13 16:53:00,66.0,25.0,-100.00,NNW,331,8.0,16.0,21,0.00,,,0.00,982.000000,,2013-05-13 20:53:00,
2013-05-13 17:03:00,66.0,25.0,-100.00,NNW,331,8.0,16.0,21,0.00,,,0.00,982.000000,,2013-05-13 21:03:00,
2013-05-13 17:23:00,65.0,23.0,-100.00,NNW,327,7.0,17.0,20,0.00,,,0.00,824.000000,,2013-05-13 21:23:00,
2013-05-13 17:34:00,65.0,23.0,-100.00,NNW,327,7.0,17.0,20,0.00,,,0.00,824.000000,,2013-05-13 21:34:00,
2013-05-13 17:44:00,65.0,23.0,-100.00,NNW,327,7.0,17.0,20,0.00,,,0.00,824.000000,,2013-05-13 21:44:00,
2013-05-13 17:53:00,65.0,23.0,-100.00,NNW,327,7.0,17.0,20,0.00,,,0.00,824.000000,,2013-05-13 21:53:00,
2013-05-13 18:02:00,65.0,23.0,-100.00,NNW,327,7.0,17.0,20,0.00,,,0.00,824.000000,,2013-05-13 22:02:00,
2013-05-13 18:32:00,65.0,25.0,-100.00,West,263,7.0,16.0,22,0.00,,,0.00,636.000000,,2013-05-13 22:32:00,
2013-05-13 18:43:00,65.0,25.0,-100.00,West,263,7.0,16.0,22,0.00,,,0.00,636.000000,,2013-05-13 22:43:00,
2013-05-13 18:52:00,65.0,25.0,-100.00,West,263,7.0,16.0,22,0.00,,,0.00,636.000000,,2013-05-13 22:52:00,
2013-05-13 19:02:00,65.0,25.0,-100.00,West,263,7.0,16.0,22,0.00,,,0.00,636.000000,,2013-05-13 23:02:00,
2013-05-13 19:23:00,63.0,26.0,-100.00,WNW,290,5.0,17.0,24,0.00,,,0.00,367.000000,,2013-05-13 23:23:00,
2013-05-13 19:34:00,63.0,26.0,-100.00,WNW,290,5.0,17.0,24,0.00,,,0.00,367.000000,,2013-05-13 23:34:00,
2013-05-13 19:42:00,63.0,26.0,-100.00,WNW,290,5.0,17.0,24,0.00,,,0.00,367.000000,,2013-05-13 23:42:00,
2013-05-13 19:54:00,63.0,26.0,-100.00,WNW,290,5.0,17.0,24,0.00,,,0.00,367.000000,,2013-05-13 23:54:00,
2013-05-13 20:02:00,63.0,26.0,-100.00,WNW,290,5.0,17.0,24,0.00,,,0.00,367.000000,,2013-05-14 00:02:00,
2013-05-13 20:22:00,60.0,25.0,-100.00,WNW,290,4.0,12.0,26,0.00,,,0.00,121.000000,,2013-05-14 00:22:00,
2013-05-13 20:32:00,60.0,25.0,-100.00,WNW,290,4.0,12.0,26,0.00,,,0.00,121.000000,,2013-05-14 00:32:00,
2013-05-13 20:42:00,60.0,25.0,-100.00,WNW,290,4.0,12.0,26,0.00,,,0.00,121.000000,,2013-05-14 00:42:00,
2013-05-13 20:52:00,60.0,25.0,-100.00,WNW,290,4.0,12.0,26,0.00,,,0.00,121.000000,,2013-05-14 00:52:00,
2013-05-13 21:02:00,60.0,25.0,-100.00,WNW,290,4.0,12.0,26,0.00,,,0.00,121.000000,,2013-05-14 01:02:00,
2013-05-13 21:32:00,54.0,30.0,-100.00,WNW,297,2.0,6.0,39,0.00,,,0.00,4.000000,,2013-05-14 01:32:00,
2013-05-13 21:43:00,54.0,30.0,-100.00,WNW,297,2.0,6.0,39,0.00,,,0.00,4.000000,,2013-05-14 01:43:00,
2013-05-13 21:53:00,54.0,30.0,-100.00,WNW,297,2.0,6.0,39,0.00,,,0.00,4.000000,,2013-05-14 01:53:00,
2013-05-13 22:02:00,54.0,30.0,-100.00,WNW,297,2.0,6.0,39,0.00,,,0.00,4.000000,,2013-05-14 02:02:00,
2013-05-13 22:22:00,51.0,35.0,-100.00,WNW,301,2.0,4.0,54,0.00,,,0.00,0.000000,,2013-05-14 02:22:00,
2013-05-13 22:32:00,51.0,35.0,-100.00,WNW,301,2.0,4.0,54,0.00,,,0.00,0.000000,,2013-05-14 02:32:00,
2013-05-13 22:42:00,51.0,35.0,-100.00,WNW,301,2.0,4.0,54,0.00,,,0.00,0.000000,,2013-05-14 02:42:00,
2013-05-13 22:52:00,51.0,35.0,-100.00,WNW,301,2.0,4.0,54,0.00,,,0.00,0.000000,,2013-05-14 02:52:00,
2013-05-13 23:01:00,51.0,35.0,-100.00,WNW,301,2.0,4.0,54,0.00,,,0.00,0.000000,,2013-05-14 03:01:00,
2013-05-13 23:21:00,48.0,32.0,-100.00,NE,44,0.0,3.0,53,0.00,,,0.00,0.000000,,2013-05-14 03:21:00,
2013-05-13 23:33:00,48.0,32.0,-100.00,NE,44,0.0,3.0,53,0.00,,,0.00,0.000000,,2013-05-14 03:33:00,
2013-05-13 23:43:00,48.0,32.0,-100.00,NE,44,0.0,3.0,53,0.00,,,0.00,0.000000,,2013-05-14 03:43:00,
2013-05-13 23:53:00,48.0,32.0,-100.00,NE,44,0.0,3.0,53,0.00,,,0.00,0.000000,,2013-05-14 03:53:00,